トータス彗星

P/2014 C1 ( TOTAS ) 2019

English version
Home page
Updated on November 4, 2020

---------------------------------------------------------------------

・ プロフィール

・ 写真集

・ 軌道要素

Epoch 2019 Apr. 27.0 TT = JDT 2458600.5
T 2019 May 8.88539 TT                                   MPC
q   1.6871443            (2000.0)            P               Q
n   0.18330962     Peri.   24.35001     -0.97701090     +0.21296466
a   3.0691106      Node   167.93389     -0.20247140     -0.91254423
e   0.4502823      Incl.    2.68300     -0.06674601     -0.34915481
P   5.38
From 46 observations 2014 Feb. 1-May 8, mean residual 0".6.

・ 星図

・ 光度変化

        m1 = 17.0 + 5 logΔ + 10.0 log r

        ※ 灰色の曲線は、m1 = 14.0 + 5 logΔ + 10.0 log r の光度曲線です。

---------------------------------------------------------------------

軌道要素はM.P.E.C. 2014-L52に掲載されたものです。
星図はステラナビゲータ Ver.10 (アストロアーツ) で作成したものです。
光度グラフはComet for Windowsで作成したものです。

---------------------------------------------------------------------

Copyright(C) Seiichi Yoshida (comet@aerith.net). All rights reserved.